Location: Góry Miechowskie
(50.3599°N, 20.1803°E)
Time: 01:42:17
(UTC+00:00)

S-56A Canister/Altair - Pass Details

Date: 14 September 2024
Orbit: 636 x 2487 km, 38.9° (Epoch: 15 October)

Event Time Altitude Azimuth Distance (km) Brightness Sun altitude
Rises 16:03:05 0° 189° (S) 3,197 10.9 7.4°
Reaches altitude 10° 16:07:35 10° 151° (SSE) 2,580 10.0 6.7°
Maximum altitude 16:09:00 11° 138° (SE) 2,631 9.9 6.4°
Drops below altitude 10° 16:10:32 10° 124° (SE) 2,815 10.0 6.2°
Sets 16:16:30 0° 92° (E) 4,295 10.6 5.2°
